Weather History for KMMV - February, 2013

Change the Weather History Date:

Tuesday, February 19, 2013

  Actual Average Record
Temperature  
Mean Temperature 45 °F 43 °F  
Max Temperature 54 °F 51 °F 65 °F (1916)
Min Temperature 36 °F 35 °F 20 °F (1955)
Degree Days  
Heating Degree Days 20 22  
Month to date heating degree days 389 432  
Since 1 July heating degree days 2886 3187  
Cooling Degree Days 0 0  
Month to date cooling degree days 0 0  
Year to date cooling degree days 0 0  
Moisture  
Dew Point 36 °F    
Average Humidity 71    
Maximum Humidity 92    
Minimum Humidity 50    
Precipitation  
Precipitation T in 0.12 in 2.90 in (1968)
Month to date precipitation 0.44 3.10  
Year to date precipitation 1.43 9.20  
Snow  
Snow 0.00 in - - ()
Month to date snowfall 0.0  
Snow Depth 0.00 in    
Sea Level Pressure  
Sea Level Pressure 29.80 in    
Wind  
Wind Speed 5 mph (NNW)    
Max Wind Speed 10 mph    
Max Gust Speed 11 mph    
Visibility 10 miles    
Events      
T = Trace of Precipitation, MM = Missing Value Source: NWS Daily Summary

Daily Weather History Graph

Daily Weather History Graph

Search for Another Location

Airport or City:

Trip Planner

Search our weather history database for the weather conditions in past years. The results will help you decide how hot, cold, wet, or windy it might be!

Date:

Astronomy

Feb. 19, 2013 Rise Set
Actual Time 7:06 AM PST 5:46 PM PST
Civil Twilight 6:36 AM PST 6:16 PM PST
Nautical Twilight 6:02 AM PST 6:50 PM PST
Astronomical Twilight 5:28 AM PST 7:24 PM PST
Moon 12:13 PM PST (2/19) 2:51 AM PST (2/19)
Length of Visible Light 11h 39m
Length of Day
10h 39m
Waxing Gibbous, 68% of the Moon is Illuminated
Feb 19
Waxing Gibbous
Feb 25
Full
Mar 4
Last Quarter
Mar 11
New
Mar 19
First Quarter

Hourly Weather History & Observations

Time (PST) Temp. Windchill Dew Point Humidity Pressure Visibility Wind Dir Wind Speed Gust Speed Precip Events Conditions
12:53 AM 41.0 °F 39.0 °F 37.0 °F 86% 29.73 in 10.0 mi ENE 3.5 mph - 0.00 in   Overcast
1:53 AM 41.0 °F 37.1 °F 37.0 °F 86% 29.72 in 10.0 mi ESE 5.8 mph - N/A   Overcast
2:14 AM 41.0 °F 37.1 °F 37.4 °F 87% 29.72 in 10.0 mi SE 5.8 mph - N/A   Overcast
2:28 AM 41.0 °F 37.1 °F 37.4 °F 87% 29.71 in 10.0 mi SSE 5.8 mph - N/A   Overcast
2:53 AM 39.0 °F 35.7 °F 36.0 °F 89% 29.71 in 10.0 mi SE 4.6 mph - N/A   Mostly Cloudy
3:42 AM 39.2 °F 37.0 °F 35.6 °F 87% 29.71 in 10.0 mi NE 3.5 mph - N/A   Overcast
3:53 AM 39.9 °F 37.8 °F 36.0 °F 86% 29.71 in 10.0 mi East 3.5 mph - N/A   Overcast
4:03 AM 39.2 °F 37.0 °F 35.6 °F 87% 29.70 in 10.0 mi East 3.5 mph - N/A   Overcast
4:53 AM 37.0 °F 34.5 °F 34.0 °F 89% 29.70 in 10.0 mi North 3.5 mph - N/A   Scattered Clouds
5:53 AM 37.9 °F - 35.1 °F 89% 29.71 in 10.0 mi Calm Calm - N/A   Mostly Cloudy
6:53 AM 37.0 °F 34.5 °F 34.0 °F 89% 29.71 in 10.0 mi NNW 3.5 mph - N/A   Mostly Cloudy
7:53 AM 39.0 °F 35.7 °F 36.0 °F 89% 29.73 in 10.0 mi NNW 4.6 mph - N/A   Partly Cloudy
10:53 AM 46.0 °F 43.1 °F 37.9 °F 73% 29.78 in 10.0 mi NW 5.8 mph - N/A   Overcast
11:53 AM 50.0 °F - 36.0 °F 59% 29.78 in 10.0 mi North 4.6 mph - N/A   Partly Cloudy
12:53 PM 52.0 °F - 37.0 °F 57% 29.79 in 10.0 mi NNW 6.9 mph - N/A   Partly Cloudy
1:53 PM 54.0 °F - 35.1 °F 49% 29.80 in 10.0 mi North 5.8 mph - N/A   Clear
2:53 PM 50.0 °F - 35.1 °F 57% 29.81 in 10.0 mi North 8.1 mph - N/A   Clear
4:53 PM 46.0 °F 41.4 °F 37.0 °F 71% 29.85 in 10.0 mi WSW 9.2 mph - N/A   Clear
5:53 PM 41.0 °F 37.1 °F 36.0 °F 82% 29.87 in 10.0 mi WSW 5.8 mph - N/A   Clear
6:53 PM 42.1 °F 40.2 °F 37.9 °F 85% 29.90 in 10.0 mi West 3.5 mph - N/A   Clear
7:53 PM 41.0 °F 38.0 °F 35.1 °F 79% 29.93 in 10.0 mi WNW 4.6 mph - N/A   Overcast
8:53 PM 41.0 °F 39.0 °F 36.0 °F 82% 29.96 in 10.0 mi WSW 3.5 mph - N/A   Mostly Cloudy
9:53 PM 39.9 °F 35.8 °F 36.0 °F 86% 29.98 in 10.0 mi West 5.8 mph - N/A   Overcast
10:53 PM 39.9 °F 37.8 °F 36.0 °F 86% 30.01 in 10.0 mi WNW 3.5 mph 24.2 mph N/A   Overcast
11:53 PM 39.0 °F - 35.1 °F 86% 30.02 in 10.0 mi Calm Calm - N/A   Overcast